• In Belarus
  • List of Countries
  • For 7 days
  • Water Temperature
  • Satellite Maps
  • Weather Map
  • Weather Widgets
  • user-avatar
    Login

    Hourly Weather Pamporovo

    Today, 23 November, Thursday

    Time Temperature Precipitation Wind Pressure Humidity
    00:00 -2°C° 0 mm 2 mps 624 mmHg 66%
    01:00 -2°C° 0 mm 2 mps 624 mmHg 64%
    02:00 -2°C° 0 mm 2 mps 624 mmHg 63%
    03:00 -2°C° 0 mm 2 mps 624 mmHg 62%
    04:00 -2°C° 0 mm 2 mps 624 mmHg 61%
    05:00 -2°C° 0 mm 2 mps 624 mmHg 60%
    06:00 -2°C° 0 mm 2 mps 625 mmHg 60%
    07:00 -2°C° 0 mm 2 mps 625 mmHg 60%
    08:00 0°C° 0 mm 1 mps 625 mmHg 59%
    09:00 +3°C° 0 mm 1 mps 626 mmHg 54%
    10:00 +5°C° 0 mm 1 mps 627 mmHg 48%
    11:00 +7°C° 0 mm 1 mps 628 mmHg 43%
    12:00 +7°C° 0 mm 1 mps 628 mmHg 42%
    13:00 +8°C° 0 mm 1 mps 628 mmHg 42%
    14:00 +8°C° 0 mm 1 mps 628 mmHg 42%
    15:00 +6°C° 0 mm 1 mps 628 mmHg 49%
    16:00 +5°C° 0 mm 1 mps 627 mmHg 56%
    17:00 +3°C° 0 mm 1 mps 626 mmHg 63%
    18:00 +3°C° 0 mm 1 mps 626 mmHg 65%
    19:00 +2°C° 0 mm 1 mps 626 mmHg 66%
    20:00 +2°C° 0 mm 1 mps 626 mmHg 68%
    21:00 +1°C° 0 mm 1 mps 626 mmHg 68%
    22:00 +1°C° 0 mm 1 mps 626 mmHg 68%
    23:00 +1°C° 0 mm 1 mps 626 mmHg 69%

    Tomorrow, 24 November, Friday

    Time Temperature Precipitation Wind Pressure Humidity
    00:00 +1°C° 0 mm 1 mps 626 mmHg 68%
    01:00 +1°C° 0 mm 1 mps 626 mmHg 68%
    02:00 0°C° 0 mm 1 mps 626 mmHg 68%
    03:00 0°C° 0 mm 1 mps 626 mmHg 68%
    04:00 0°C° 0 mm 1 mps 626 mmHg 68%
    05:00 0°C° 0 mm 1 mps 626 mmHg 67%
    06:00 0°C° 0 mm 1 mps 626 mmHg 66%
    07:00 0°C° 0 mm 1 mps 626 mmHg 65%
    08:00 0°C° 0 mm 1 mps 626 mmHg 65%
    09:00 +2°C° 0 mm 1 mps 627 mmHg 59%
    10:00 +4°C° 0 mm 1 mps 628 mmHg 52%
    11:00 +7°C° 0 mm 1 mps 629 mmHg 46%
    12:00 +7°C° 0 mm 1 mps 629 mmHg 46%
    13:00 +7°C° 0 mm 1 mps 629 mmHg 46%
    14:00 +8°C° 0 mm 1 mps 629 mmHg 45%
    15:00 +6°C° 0 mm 1 mps 628 mmHg 53%
    16:00 +4°C° 0 mm 1 mps 627 mmHg 62%
    17:00 +3°C° 0 mm 1 mps 627 mmHg 70%
    18:00 +2°C° 0 mm 1 mps 627 mmHg 72%
    19:00 +2°C° 0 mm 1 mps 627 mmHg 73%
    20:00 +1°C° 0 mm 1 mps 627 mmHg 75%
    21:00 +1°C° 0 mm 1 mps 627 mmHg 76%
    22:00 +1°C° 0 mm 1 mps 627 mmHg 76%
    23:00 0°C° 0 mm 1 mps 627 mmHg 76%

    Day after tomorrow, 25 November, Saturday

    Time Temperature Precipitation Wind Pressure Humidity
    00:00 0°C° 0 mm 1 mps 627 mmHg 77%
    01:00 0°C° 0 mm 1 mps 627 mmHg 77%
    02:00 0°C° 0 mm 1 mps 627 mmHg 78%
    03:00 0°C° 0 mm 1 mps 626 mmHg 79%
    04:00 -1°C° 0 mm 1 mps 626 mmHg 79%
    05:00 -1°C° 0 mm 1 mps 626 mmHg 80%
    06:00 -1°C° 0 mm 1 mps 626 mmHg 80%
    07:00 -1°C° 0 mm 1 mps 626 mmHg 79%
    08:00 -1°C° 0 mm 1 mps 627 mmHg 79%
    09:00 +1°C° 0 mm 1 mps 627 mmHg 73%
    10:00 +3°C° 0 mm 1 mps 628 mmHg 67%
    11:00 +5°C° 0 mm 1 mps 629 mmHg 61%
    12:00 +5°C° 0 mm 1 mps 628 mmHg 59%
    13:00 +5°C° 0 mm 2 mps 628 mmHg 58%
    14:00 +5°C° 0 mm 2 mps 628 mmHg 56%
    15:00 +4°C° 0 mm 2 mps 627 mmHg 64%
    16:00 +3°C° 0 mm 1 mps 627 mmHg 71%
    17:00 +2°C° 0 mm 1 mps 626 mmHg 79%
    18:00 +1°C° 0 mm 1 mps 626 mmHg 81%
    19:00 +1°C° 0 mm 1 mps 626 mmHg 83%
    20:00 0°C° 0 mm 1 mps 625 mmHg 85%
    21:00 0°C° 0 mm 1 mps 625 mmHg 85%
    22:00 0°C° 0 mm 1 mps 625 mmHg 84%
    23:00 -1°C° 0 mm 1 mps 625 mmHg 84%

    26 November, Sunday

    Time Temperature Precipitation Wind Pressure Humidity
    00:00 -1°C° 0 mm 1 mps 625 mmHg 84%
    01:00 -1°C° 0 mm 1 mps 625 mmHg 84%
    02:00 -1°C° 0 mm 1 mps 625 mmHg 84%
    03:00 -1°C° 0 mm 1 mps 624 mmHg 84%
    04:00 -1°C° 0 mm 1 mps 624 mmHg 84%
    05:00 -1°C° 0 mm 1 mps 624 mmHg 84%
    06:00 -1°C° 0 mm 1 mps 624 mmHg 83%
    07:00 -1°C° 0 mm 1 mps 624 mmHg 83%
    08:00 -1°C° 0 mm 1 mps 624 mmHg 82%
    09:00 +1°C° 0 mm 1 mps 625 mmHg 75%
    10:00 +3°C° 0 mm 1 mps 625 mmHg 68%
    11:00 +4°C° 0 mm 1 mps 626 mmHg 61%
    12:00 +5°C° 0 mm 1 mps 626 mmHg 61%
    13:00 +4°C° 0 mm 2 mps 625 mmHg 60%
    14:00 +5°C° 0 mm 2 mps 625 mmHg 59%
    15:00 +4°C° 0 mm 2 mps 625 mmHg 67%
    16:00 +2°C° 0 mm 2 mps 624 mmHg 74%
    17:00 +2°C° 0 mm 1 mps 623 mmHg 82%
    18:00 +2°C° 0 mm 1 mps 623 mmHg 84%
    19:00 +2°C° 0 mm 1 mps 623 mmHg 85%
    20:00 +1°C° 0 mm 1 mps 623 mmHg 87%
    21:00 +1°C° 0 mm 1 mps 623 mmHg 88%
    22:00 +1°C° 0 mm 1 mps 623 mmHg 88%
    23:00 +1°C° 0 mm 1 mps 622 mmHg 88%

    27 November, Monday

    Time Temperature Precipitation Wind Pressure Humidity
    00:00 +1°C° 0.1 mm 1 mps 622 mmHg 88%
    01:00 0°C° 0.1 mm 1 mps 622 mmHg 88%
    02:00 0°C° 0.1 mm 1 mps 621 mmHg 88%
    03:00 0°C° 0 mm 1 mps 621 mmHg 88%
    04:00 0°C° 0 mm 1 mps 621 mmHg 88%
    05:00 0°C° 0 mm 1 mps 620 mmHg 88%
    06:00 0°C° 0 mm 1 mps 621 mmHg 87%
    07:00 0°C° 0 mm 1 mps 621 mmHg 85%
    08:00 0°C° 0 mm 1 mps 621 mmHg 84%
    09:00 +1°C° 0.3 mm 1 mps 621 mmHg 81%
    10:00 +2°C° 0.3 mm 1 mps 622 mmHg 78%
    11:00 +3°C° 0.3 mm 1 mps 623 mmHg 75%
    12:00 +3°C° 0.6 mm 1 mps 622 mmHg 77%
    13:00 +1°C° 0.6 mm 2 mps 622 mmHg 79%
    14:00 +1°C° 0.6 mm 2 mps 621 mmHg 80%
    15:00 +1°C° 0.3 mm 2 mps 622 mmHg 81%
    16:00 -1°C° 0.3 mm 2 mps 622 mmHg 82%
    17:00 -2°C° 0.3 mm 2 mps 622 mmHg 83%
    18:00 -2°C° 0 mm 2 mps 622 mmHg 83%
    19:00 -3°C° 0 mm 2 mps 622 mmHg 84%
    20:00 -4°C° 0 mm 2 mps 622 mmHg 84%
    21:00 -4°C° 0 mm 2 mps 622 mmHg 83%
    22:00 -5°C° 0 mm 2 mps 622 mmHg 82%
    23:00 -5°C° 0 mm 2 mps 622 mmHg 80%

    28 November, Tuesday

    Time Temperature Precipitation Wind Pressure Humidity
    00:00 -6°C° 0 mm 2 mps 622 mmHg 79%
    01:00 -6°C° 0 mm 2 mps 622 mmHg 78%
    02:00 -6°C° 0 mm 2 mps 622 mmHg 77%
    03:00 -6°C° 0 mm 2 mps 622 mmHg 76%
    04:00 -7°C° 0 mm 2 mps 622 mmHg 76%
    05:00 -7°C° 0 mm 2 mps 622 mmHg 75%
    06:00 -7°C° 0 mm 2 mps 623 mmHg 75%
    07:00 -7°C° 0 mm 2 mps 623 mmHg 74%
    08:00 -6°C° 0 mm 1 mps 623 mmHg 73%
    09:00 -3°C° 0 mm 1 mps 624 mmHg 67%
    10:00 -4°C° 0 mm 2 mps 625 mmHg 61%
    11:00 -3°C° 0 mm 2 mps 625 mmHg 55%
    12:00 -2°C° 0 mm 2 mps 625 mmHg 55%
    13:00 -2°C° 0 mm 2 mps 625 mmHg 54%
    14:00 -2°C° 0 mm 2 mps 625 mmHg 53%
    15:00 -1°C° 0 mm 1 mps 624 mmHg 59%
    16:00 -2°C° 0 mm 1 mps 624 mmHg 64%
    17:00 -3°C° 0 mm 1 mps 624 mmHg 69%
    18:00 -3°C° 0 mm 1 mps 624 mmHg 71%
    19:00 -3°C° 0 mm 1 mps 624 mmHg 74%
    20:00 -4°C° 0 mm 1 mps 624 mmHg 76%
    21:00 -4°C° 0 mm 1 mps 624 mmHg 78%
    22:00 -4°C° 0 mm 1 mps 624 mmHg 79%
    23:00 -6°C° 0 mm 1 mps 624 mmHg 81%
    Show more